User: anonymous   Login
Location: Melbourne
(37.8170°S, 144.9670°E)
Time: 15:01:50
(UTC+10:00)
Language:

ERBS - Orbit

View from above orbital plane
View from above orbital plane
View from above satellite
View from above satellite

Ground track
Ground track

The orbit data is extracted from the following two-line orbital elements,

1 15354U 84108B   16272.09206603  .00005792  00000-0  14444-3 0  9996
2 15354  57.0092 185.2477 0009777 357.1624   2.9373 15.41680201757758
Epoch (UTC): 28 September 2016 02:12:34
Eccentricity: 0.0009777
inclination: 57.0092°
perigee height: 434 km
apogee height: 448 km
right ascension of ascending node: 185.2477°
argument of perigee: 357.1624°
revolutions per day: 15.41680201
mean anomaly at epoch: 2.9373°
orbit number at epoch: 75775

The dashed part of the orbit path shows where the satellite is in the earth's shadow,  

DLR